{"data":{"norad_id":65128,"intl_designator":"2025-170K","name":"GEESAT-4 10","alt_names":[],"object_type":"PAYLOAD","status":"ACTIVE","operator":null,"country":"PRC","launch_date":"2025-08-08","launch_site_code":"YSLA","launch_vehicle":null,"mission":null,"orbit_class":"UNKNOWN","rcs_meters":null,"size_class":null,"mass_kg":null,"dimensions":null,"purposes":[],"wikipedia_slug":null,"has_3d_model":false,"image_url":null,"decayed_at":null,"tle_current":{"epoch":"2026-05-25T03:59:16.096992Z","epoch_age_seconds":64212,"freshness":"FRESH","line1":"1 65128U 25170K   26145.16615853  .00001320  00000+0  19220-3 0  9992","line2":"2 65128  49.9779 233.8495 0025595 203.0723 156.9067 14.82000925 43648","mean_motion":14.82000925,"eccentricity":0.0025595,"inclination_deg":49.9779,"raan_deg":233.8495,"arg_perigee_deg":203.0723,"mean_anomaly_deg":156.9067,"bstar":0.0001922,"rev_number":4364,"period_min":97.165931256082,"perigee_km":605.09584493724,"apogee_km":640.93474353142,"semimajor_km":7001.1522942343,"source":"CELESTRAK","updated_at":"2026-05-25T13:38:05.139751Z"}}}